Location: Cowley
(49.5667°N, 114.0667°W)
Time: 11:24:58
(UTC+00:00)

Envisat - Pass Details

Date: 04 December 2021
Orbit: 764 x 766 km, 98.2° (Epoch: 25 January)

Event Time Altitude Azimuth Distance (km) Brightness Sun altitude
Rises 12:11:30 0° 19° (NNE) 3,246 6.5 -28.8°
Reaches altitude 10° 12:13:56 10° 26° (NNE) 2,315 5.7 -28.4°
Maximum altitude 12:18:48 44° 98° (E) 1,053 4.1 -27.6°
Drops below altitude 10° 12:23:38 10° 170° (S) 2,297 5.6 -26.8°
Sets 12:26:02 0° 177° (S) 3,218 6.3 -26.5°
